Theta_e
320 319 318 319 321 323 324 324 333 340 344 345 343 341 345 342 344 342 334 334 336 334 333 332 332 331 330 329 328 327 325 326 323 326 323 323 324 322 320 321 322 321 319 319
321 320 321 324 326 325 324 325 337 338 342 344 337 345 340 342 341 340 335 334 335 335 334 334 333 333 331 330 329 328 326 326 325 324 322 322 322 320 320 319 319 316 313 313
322 325 325 326 325 326 325 328 335 335 337 339 342 343 343 337 337 340 342 336 338 339 336 335 335 332 330 329 328 327 326 325 322 320 319 320 320 318 319 317 314 312 310 310
325 325 327 326 326 327 326 329 328 326 325 327 336 344 337 338 337 340 344 341 341 338 336 332 326 324 324 324 322 326 321 319 320 319 320 319 319 319 315 314 312 311 309 308
325 325 326 326 328 326 327 329 328 329 326 329 343 353 351 343 341 337 340 341 339 339 328 324 323 322 322 324 322 319 320 321 320 319 316 315 316 315 312 310 310 310 307 306
325 325 326 328 327 326 325 326 327 329 327 334 343 347 352 344 343 339 337 343 338 331 326 324 323 322 321 322 321 320 320 319 319 317 315 313 313 312 311 308 309 309 308 306
326 326 327 327 326 327 326 327 327 330 335 338 345 344 344 344 342 344 339 336 329 324 323 323 321 322 323 321 320 320 319 319 316 316 314 312 311 309 310 309 308 308 308 307
329 328 325 326 325 328 329 328 331 332 327 345 343 350 352 346 342 340 335 330 326 324 321 321 321 321 321 321 321 320 318 314 315 314 313 312 310 308 309 308 307 307 305 306
337 332 326 326 327 326 328 331 332 334 333 341 344 343 342 345 339 334 330 328 326 320 321 320 319 320 321 320 318 317 314 314 315 313 311 310 308 308 308 306 305 304 304 303
335 336 329 328 327 326 327 330 329 330 333 347 349 345 345 339 335 329 327 323 320 320 320 318 319 319 319 319 316 313 312 314 314 311 309 308 308 308 307 304 303 302 302 301
329 336 332 329 330 329 327 329 333 330 333 335 347 344 336 333 329 326 322 319 321 320 319 317 317 318 319 317 314 311 313 313 313 310 309 307 307 305 304 303 302 301 301 301
332 335 335 333 329 328 327 331 331 331 332 330 338 342 332 329 325 322 320 320 320 319 318 317 318 319 318 316 312 310 313 313 310 309 306 305 307 304 304 304 301 301 302 302
335 337 330 335 334 332 329 327 330 329 330 339 344 342 329 326 323 320 319 318 319 319 317 316 318 319 317 314 309 311 312 311 308 306 305 306 305 305 305 303 302 303 303 302
337 333 335 335 340 334 331 328 331 330 331 340 339 332 329 326 322 321 320 319 318 317 317 316 316 318 316 311 310 312 310 308 306 306 306 306 305 305 304 303 303 304 303 303
335 333 330 328 330 328 327 328 329 329 330 337 332 330 327 323 321 322 321 320 318 317 317 316 316 317 315 311 312 311 308 308 305 305 306 306 306 305 305 305 305 305 304 303
333 334 331 327 326 327 328 329 328 327 330 330 328 327 322 320 322 321 320 318 317 318 317 316 319 317 312 312 312 309 308 307 304 306 306 306 305 305 305 305 304 304 304 304
333 334 332 329 328 328 333 329 329 327 326 327 326 323 320 323 321 319 317 317 317 317 317 317 318 315 311 313 310 307 307 306 305 306 307 307 306 306 306 306 306 304 304 304
334 335 334 332 329 334 331 326 328 328 327 324 322 319 324 321 318 316 315 315 316 315 318 319 316 313 313 312 308 306 306 306 305 305 307 307 306 306 307 306 306 305 304 304
331 334 339 332 334 335 330 328 329 330 330 325 321 320 322 320 317 316 315 315 314 316 318 316 314 314 313 310 308 307 306 306 306 306 306 307 307 307 307 307 305 305 305 305
333 334 338 335 337 343 331 326 326 330 334 323 320 321 321 321 323 317 314 315 316 317 318 316 315 313 312 310 308 307 306 306 306 305 305 305 307 307 306 306 305 305 305 304
332 333 336 335 341 335 328 325 327 336 332 322 320 321 321 320 317 314 314 315 316 318 318 315 312 313 313 310 308 307 306 306 306 305 305 306 308 307 307 307 307 306 306 305
334 331 334 338 338 338 334 334 335 329 322 320 320 321 319 316 315 314 315 315 316 316 316 314 313 313 312 311 309 308 306 306 305 305 305 306 308 308 307 307 306 306 306 306
340 341 342 342 338 332 330 328 327 320 319 320 319 318 316 315 314 314 314 317 317 316 314 314 314 313 312 311 310 309 307 306 306 306 305 306 307 307 307 307 306 305 306 306
338 338 333 333 331 328 325 322 319 319 320 319 318 316 315 314 314 315 315 317 317 315 314 313 313 314 314 312 310 309 307 306 306 306 305 305 306 307 307 306 307 305 304 304
331 332 334 332 328 325 323 319 318 320 319 319 317 316 315 314 315 315 318 318 317 315 314 313 314 315 316 314 312 310 308 307 307 307 306 305 306 306 308 307 307 305 305 305
331 334 333 332 327 326 322 318 319 319 319 318 317 316 316 317 316 317 318 319 316 315 314 315 315 315 315 314 312 310 307 307 307 306 306 306 306 306 307 307 308 308 306 306
Wind_Speed
8 3 8 13 13 18 11 7 6 18 18 14 17 13 21 15 23 19 7 8 6 7 10 8 5 10 11 10 12 14 14 15 18 22 25 25 24 24 27 28 29 30 30 28
5 12 18 16 17 4 10 10 7 22 19 19 7 20 9 12 12 10 7 11 9 6 6 7 4 3 6 10 10 9 12 18 22 24 26 20 22 25 23 25 27 29 33 32
10 17 18 11 5 3 9 6 3 5 14 15 18 5 5 3 6 8 8 6 9 6 2 4 6 8 13 10 9 8 20 26 25 24 22 23 23 24 23 24 27 29 33 33
10 23 7 2 6 4 4 7 10 6 5 4 6 3 2 6 9 7 5 10 4 5 5 5 16 16 14 9 11 26 29 27 24 24 22 23 18 19 23 22 26 29 33 33
13 5 2 5 0 4 2 7 7 5 6 3 4 7 1 2 5 8 2 7 10 2 4 9 11 11 12 16 30 29 28 27 24 24 26 23 24 19 22 25 27 22 29 35
13 6 4 2 5 4 5 5 7 4 2 3 4 6 2 4 5 2 2 6 6 6 7 9 9 18 31 30 30 27 27 25 23 24 26 26 22 22 25 27 22 22 24 32
7 5 2 5 3 3 4 4 4 6 2 3 6 11 3 2 7 12 9 7 8 7 6 5 22 22 24 24 25 23 26 26 25 25 26 27 26 27 25 25 24 26 25 27
4 3 9 4 5 3 4 4 4 2 1 4 6 5 6 12 15 17 12 10 7 6 18 18 18 19 25 27 27 27 27 27 24 24 26 26 26 24 22 23 23 26 27 25
4 4 6 7 4 4 6 4 2 1 3 6 4 7 3 6 12 15 11 8 8 17 17 16 21 23 23 26 24 23 23 23 21 23 25 24 23 22 23 22 26 26 26 27
4 2 6 6 3 6 2 2 5 4 3 5 5 8 5 6 9 9 10 8 11 15 14 12 16 22 23 23 23 24 24 22 22 24 26 26 24 23 20 22 24 25 23 25
4 3 1 5 3 5 6 6 4 3 3 2 4 3 6 8 8 8 10 16 18 15 13 10 15 23 24 22 23 24 24 25 22 22 21 22 22 22 21 20 23 24 22 23
2 3 2 3 6 8 8 7 5 5 5 2 5 1 7 8 9 10 11 13 13 12 9 13 19 18 22 22 22 25 25 24 23 20 23 23 21 24 21 21 24 24 24 22
3 4 3 4 7 7 7 6 6 3 3 3 4 3 8 10 11 11 10 12 13 14 13 12 15 16 19 21 22 23 24 18 21 23 26 25 23 23 22 24 23 26 26 24
1 4 3 4 4 5 6 9 9 6 4 3 10 9 8 8 9 9 9 11 11 10 9 8 9 17 18 21 19 20 21 20 22 25 24 25 23 25 24 24 24 25 23 24
4 1 2 6 7 10 9 9 9 8 4 8 8 11 7 7 9 9 12 13 13 11 10 9 7 13 18 18 17 20 22 21 23 24 25 26 25 24 24 25 25 25 25 25
4 1 3 3 7 10 10 7 13 10 12 15 14 10 8 9 13 13 11 11 10 8 8 7 13 14 16 15 16 20 20 20 21 23 21 25 26 25 27 28 28 26 24 24
2 2 3 2 9 9 6 5 10 11 9 9 7 5 11 12 12 8 8 9 9 6 7 8 10 14 15 12 19 20 21 18 20 20 19 18 21 23 24 24 25 27 26 24
2 3 2 3 5 3 3 6 13 12 10 9 9 9 14 13 9 9 8 8 7 6 8 9 15 15 10 15 19 21 21 17 18 19 21 21 20 21 22 24 23 22 24 25
1 3 2 4 3 5 6 2 4 7 5 7 9 9 16 15 13 8 8 7 7 8 9 17 16 10 13 19 18 19 16 15 14 18 20 20 20 21 21 21 23 24 23 23
1 4 3 2 3 4 3 6 8 10 3 6 9 8 6 9 2 3 7 9 12 10 9 14 15 12 13 17 17 17 15 13 14 14 15 17 18 20 21 22 21 21 20 20
0 2 3 3 4 4 4 6 1 2 6 9 8 8 9 5 4 7 9 8 9 12 12 16 15 12 14 15 16 14 13 11 9 9 11 15 16 15 16 18 22 21 20 22
5 5 0 3 5 3 5 6 1 6 7 10 7 11 13 11 8 8 7 6 8 10 13 15 17 11 10 11 15 11 10 8 8 8 10 12 13 14 16 19 19 21 22 20
3 4 4 2 4 0 7 11 7 9 9 8 9 9 11 10 8 8 6 7 10 8 19 16 13 10 11 10 11 12 7 7 5 7 10 11 11 13 14 14 18 16 17 17
4 5 5 5 4 6 9 9 9 9 9 9 10 10 9 9 8 7 6 9 7 14 14 13 9 7 10 10 9 10 10 4 4 6 8 8 10 10 9 11 12 15 17 18
4 5 7 6 7 8 8 8 9 9 9 11 14 12 9 8 8 7 5 7 10 16 14 11 9 6 9 11 8 6 7 4 5 7 3 6 9 10 6 6 9 9 10 12
1 7 4 4 12 6 8 9 10 9 8 8 13 8 13 15 9 12 8 7 11 14 15 14 10 7 8 11 8 5 9 8 5 5 6 9 10 8 10 11 8 4 4 7
Wind_Direction
253 203 234 242 242 251 262 304 57 99 130 84 121 135 123 174 192 232 170 127 150 147 117 106 127 94 89 67 53 43 42 39 34 39 35 30 24 23 9 10 5 13 8 9
289 232 242 242 250 311 321 304 68 146 133 111 135 107 131 162 151 166 183 160 165 140 144 170 143 98 135 100 61 46 37 41 37 36 26 26 25 19 13 7 7 0 356 355
220 248 243 245 326 258 273 313 162 102 101 88 114 66 77 33 118 204 347 102 93 298 175 184 88 28 76 51 50 32 48 52 46 35 24 25 17 18 20 21 9 7 10 12
243 253 241 244 263 296 3 352 15 33 29 227 174 93 214 161 243 285 22 70 107 237 289 89 70 73 74 65 51 71 60 47 45 39 39 38 30 26 25 22 12 5 2 9
273 122 210 275 75 53 218 26 332 324 321 359 94 92 165 129 218 244 290 81 261 139 44 78 69 68 81 68 81 60 59 56 49 40 37 43 44 41 29 21 17 9 7 10
271 181 186 52 70 58 317 318 316 299 213 24 12 100 229 204 224 208 10 204 212 115 92 137 99 63 82 67 67 66 59 55 52 44 40 43 42 37 30 22 15 3 3 6
277 176 253 81 346 239 251 39 336 3 27 95 93 64 232 280 76 103 125 155 141 134 149 135 73 77 76 66 61 55 58 52 43 47 44 34 33 25 23 15 7 6 358 4
265 269 182 132 224 244 346 128 124 338 340 166 32 70 8 87 124 144 160 126 133 100 81 79 79 78 63 55 49 45 53 40 44 44 39 35 25 20 25 18 10 11 11 5
326 350 111 135 34 66 324 26 234 82 305 71 85 121 61 146 127 113 115 100 78 96 82 74 64 80 75 69 59 56 50 45 50 52 42 29 29 27 28 24 17 9 13 10
309 329 156 108 52 281 193 274 31 358 18 96 95 66 104 70 118 108 91 88 68 94 91 77 66 71 59 72 60 52 51 45 45 50 37 31 23 23 29 22 19 15 17 12
2 18 2 111 9 66 36 32 28 111 60 107 124 75 127 109 81 81 66 66 81 75 71 74 66 61 65 66 57 47 46 37 55 49 43 33 32 34 29 31 26 22 22 18
26 117 20 112 76 46 86 85 91 105 326 269 95 149 99 100 80 80 79 87 81 76 66 63 71 63 75 61 55 44 38 51 50 39 32 38 37 27 32 30 36 26 21 14
324 354 20 16 9 28 71 55 81 101 85 342 97 159 87 85 76 76 80 78 82 73 58 51 58 59 65 61 51 42 36 58 49 43 43 40 38 34 29 31 30 23 16 19
133 44 114 185 181 119 85 72 68 77 57 62 113 111 81 70 79 86 73 78 87 81 71 68 46 65 66 65 53 39 55 58 48 41 40 39 36 34 32 30 23 22 29 31
80 47 3 300 90 78 78 79 68 60 45 107 110 96 101 90 82 82 75 65 56 57 63 68 58 69 68 62 50 60 49 53 45 43 41 37 35 33 30 26 25 30 35 38
20 304 322 74 82 92 87 79 85 61 53 98 104 95 118 86 82 70 66 68 63 59 54 65 78 68 72 60 50 68 49 59 48 41 35 39 39 41 40 36 31 31 31 32
87 103 46 188 114 107 66 65 99 86 64 103 94 121 87 80 78 76 76 75 80 69 59 69 76 77 77 57 76 61 54 58 46 34 39 41 32 25 23 23 25 31 29 32
106 108 96 220 109 145 163 81 106 100 77 90 88 85 109 107 91 81 72 87 84 64 74 62 81 87 74 78 79 67 55 49 43 34 31 34 32 32 32 32 37 33 36 37
344 112 347 127 108 120 121 122 129 122 74 68 96 87 126 118 96 64 90 89 109 104 87 101 104 100 84 89 79 62 49 49 46 40 30 27 30 28 28 31 38 39 40 41
215 103 116 355 143 161 128 101 115 112 107 85 96 89 82 171 91 139 111 119 102 102 95 109 103 88 86 94 74 63 46 52 49 46 31 25 22 38 43 48 41 41 34 35
66 20 221 268 101 54 111 109 158 180 192 104 99 97 85 84 125 137 110 131 148 142 129 119 90 93 100 99 78 61 53 58 55 33 41 34 31 28 30 31 25 30 34 38
155 159 229 305 97 144 349 65 229 162 106 110 96 110 112 119 116 115 132 167 121 118 125 125 106 113 103 110 82 65 53 57 62 46 26 15 33 38 42 37 34 33 39 38
52 140 129 39 145 180 50 102 107 102 107 109 98 103 115 119 121 132 164 136 110 103 130 130 113 127 118 111 86 96 58 51 66 25 32 26 34 44 46 40 29 30 27 25
110 136 110 95 110 99 85 80 92 97 103 104 105 110 110 119 139 157 134 111 127 124 127 127 108 125 131 128 114 99 61 46 44 11 17 30 34 34 32 55 39 36 41 39
166 97 122 88 122 113 100 104 106 100 106 115 115 120 127 133 119 114 111 123 118 128 109 93 121 100 123 127 122 108 77 62 40 6 10 17 21 16 4 24 28 42 44 37
357 156 132 199 169 144 147 138 132 122 117 111 122 130 141 124 115 120 110 84 129 109 110 113 117 100 92 113 114 96 74 61 50 57 30 13 8 10 5 359 318 347 25 22